DLH413 KEWR-EDDM

Flight info

Callsign DLH413
Flight time 7h 29m
Altitude 39000
Route GREKI DCT JUDDS DCT MARTN DCT CBIRD DCT TAFFY N809A IRLOK/M084F400 DCT 5630N05000W 5730N04000W 5730N03000W 5630N02000W DCT ETARI DCT MOGLO/N0481F410 DCT NIBOG DCT MOXDE DCT TOPPA DCT DODEN/N0457F330 DCT TABUM DCT BOMBI T104 HAREM/N0427F270 T104 ROKIL ROKIL1A
Aircraft A359/H-SADE2E3GHIJ1J2J3J4J5M1P2RWXYZ/LB1D1

Departure

Time 2026-04-30 06:54
Airport Newark Liberty International Airport (KEWR)

Arrival

Time 2026-04-30 14:24
Airport Munich Airport (EDDM)
Time Latitude Longitude Altitude Speed Heading
2026-04-30 06:11 40.68800 -74.17801 27 ft 0 kts 110°
2026-04-30 06:17 40.68800 -74.17802 27 ft 0 kts 110°
2026-04-30 06:23 40.68801 -74.17802 27 ft 0 kts 110°
2026-04-30 06:41 40.68806 -74.17822 27 ft 3 kts 111°
2026-04-30 06:41 40.68817 -74.17844 25 ft 3 kts 152°
2026-04-30 06:42 40.68824 -74.17849 32 ft 0 kts 169°
2026-04-30 06:47 40.68822 -74.17849 24 ft 2 kts 170°
2026-04-30 06:47 40.68754 -74.17845 27 ft 17 kts 168°
2026-04-30 06:47 40.68672 -74.17750 27 ft 15 kts 118°
2026-04-30 06:47 40.68628 -74.17637 29 ft 13 kts 117°
2026-04-30 06:48 40.68593 -74.17546 31 ft 10 kts 117°
2026-04-30 06:48 40.68578 -74.17473 32 ft 7 kts 79°
2026-04-30 06:48 40.68636 -74.17411 33 ft 16 kts 28°
2026-04-30 06:48 40.68798 -74.17306 29 ft 25 kts 25°
2026-04-30 06:49 40.68840 -74.17279 29 ft 6 kts 26°
2026-04-30 06:49 40.68895 -74.17244 28 ft 13 kts 26°
2026-04-30 06:49 40.69001 -74.17176 27 ft 21 kts 26°
2026-04-30 06:49 40.69144 -74.17084 29 ft 25 kts 26°
2026-04-30 06:50 40.69308 -74.16980 31 ft 27 kts 25°
2026-04-30 06:50 40.69474 -74.16876 28 ft 26 kts 26°
2026-04-30 06:50 40.69632 -74.16774 26 ft 25 kts 26°
2026-04-30 06:50 40.69789 -74.16675 23 ft 25 kts 26°
2026-04-30 06:51 40.69938 -74.16580 24 ft 13 kts 25°
2026-04-30 06:51 40.69948 -74.16574 24 ft 5 kts 25°
2026-04-30 06:51 40.70025 -74.16525 21 ft 16 kts 26°
2026-04-30 06:51 40.70066 -74.16431 24 ft 10 kts 94°
2026-04-30 06:52 40.70041 -74.16376 25 ft 2 kts 158°
2026-04-30 06:52 40.70019 -74.16377 23 ft 4 kts 184°
2026-04-30 06:52 40.70000 -74.16385 21 ft 0 kts 202°
2026-04-30 06:53 40.69967 -74.16403 21 ft 24 kts 202°
2026-04-30 06:54 40.69618 -74.16625 28 ft 85 kts 205°
2026-04-30 06:54 40.68913 -74.17068 27 ft 137 kts 206°
2026-04-30 06:54 40.67925 -74.17677 150 ft 173 kts 204°
2026-04-30 06:54 40.66779 -74.18308 648 ft 182 kts 193°
2026-04-30 06:55 40.65549 -74.18367 1475 ft 176 kts 172°
2026-04-30 06:55 40.64297 -74.18051 1843 ft 191 kts 168°
2026-04-30 06:55 40.62964 -74.17668 2281 ft 202 kts 169°
2026-04-30 06:55 40.61561 -74.17157 2579 ft 221 kts 166°
2026-04-30 06:56 40.60054 -74.16549 3088 ft 230 kts 166°
2026-04-30 06:56 40.58530 -74.15733 3597 ft 243 kts 160°
2026-04-30 06:56 40.57026 -74.14559 4007 ft 260 kts 150°
2026-04-30 06:56 40.55606 -74.12968 4508 ft 273 kts 141°
2026-04-30 06:57 40.54346 -74.11012 4976 ft 285 kts 129°
2026-04-30 06:57 40.53348 -74.08769 5616 ft 290 kts 120°
2026-04-30 06:57 40.52620 -74.06270 6256 ft 294 kts 109°
2026-04-30 06:57 40.52222 -74.03619 6864 ft 298 kts 98°
2026-04-30 06:58 40.52178 -74.00872 7463 ft 301 kts 88°
2026-04-30 06:58 40.52499 -73.98127 7985 ft 307 kts 77°
2026-04-30 06:58 40.53188 -73.95494 8564 ft 309 kts 66°
2026-04-30 06:58 40.54234 -73.93022 9167 ft 311 kts 55°
2026-04-30 06:59 40.55607 -73.90823 9755 ft 311 kts 44°
2026-04-30 06:59 40.57261 -73.88971 10242 ft 316 kts 33°
2026-04-30 06:59 40.59196 -73.87502 10456 ft 327 kts 21°
2026-04-30 06:59 40.61385 -73.86518 10658 ft 338 kts
2026-04-30 07:00 40.63745 -73.85988 10882 ft 349 kts
2026-04-30 07:00 40.66199 -73.85583 11124 ft 361 kts
2026-04-30 07:00 40.68688 -73.85176 11494 ft 367 kts
2026-04-30 07:00 40.71242 -73.84746 11933 ft 371 kts
2026-04-30 07:01 40.73825 -73.84302 12402 ft 375 kts
2026-04-30 07:01 40.76426 -73.83851 12865 ft 378 kts
2026-04-30 07:01 40.79052 -73.83394 13340 ft 381 kts
2026-04-30 07:01 40.81692 -73.82932 13779 ft 385 kts
2026-04-30 07:02 40.84325 -73.82470 14200 ft 387 kts
2026-04-30 07:02 40.86999 -73.82001 14626 ft 389 kts
2026-04-30 07:02 40.89714 -73.81523 15055 ft 392 kts
2026-04-30 07:02 40.92434 -73.81044 15461 ft 395 kts
2026-04-30 07:03 40.95178 -73.80561 15865 ft 398 kts
2026-04-30 07:03 40.97914 -73.80064 16259 ft 402 kts
2026-04-30 07:03 41.00655 -73.79179 16651 ft 410 kts 16°
2026-04-30 07:03 41.03240 -73.77496 17047 ft 418 kts 29°
2026-04-30 07:04 41.05638 -73.75353 17435 ft 422 kts 33°
2026-04-30 07:04 41.07995 -73.72997 17812 ft 426 kts 36°
2026-04-30 07:04 41.10329 -73.70544 18182 ft 430 kts 37°
2026-04-30 07:04 41.12672 -73.68051 18518 ft 432 kts 37°
2026-04-30 07:05 41.17411 -73.63057 19329 ft 433 kts 36°
2026-04-30 07:05 41.19790 -73.60585 19703 ft 435 kts 36°
2026-04-30 07:05 41.22159 -73.58138 20062 ft 437 kts 36°
2026-04-30 07:06 41.24572 -73.55657 20410 ft 439 kts 37°
2026-04-30 07:06 41.26992 -73.53166 20759 ft 441 kts 37°
2026-04-30 07:06 41.29436 -73.50650 21111 ft 443 kts 37°
2026-04-30 07:06 41.31873 -73.48137 21455 ft 445 kts 37°
2026-04-30 07:07 41.34331 -73.45599 21806 ft 447 kts 37°
2026-04-30 07:07 41.36793 -73.43054 22135 ft 449 kts 37°
2026-04-30 07:07 41.39272 -73.40488 22478 ft 451 kts 37°
2026-04-30 07:07 41.41727 -73.37945 22831 ft 452 kts 38°
2026-04-30 07:08 41.44211 -73.35369 23178 ft 453 kts 38°
2026-04-30 07:08 41.46709 -73.32761 23483 ft 456 kts 40°
2026-04-30 07:08 41.49063 -73.29934 23730 ft 457 kts 44°
2026-04-30 07:08 41.51363 -73.26996 24129 ft 455 kts 45°
2026-04-30 07:09 41.53623 -73.24031 24455 ft 455 kts 45°
2026-04-30 07:09 41.55867 -73.21043 24700 ft 458 kts 46°
2026-04-30 07:09 41.58135 -73.18106 24953 ft 460 kts 41°
2026-04-30 07:09 41.60700 -73.15526 25209 ft 462 kts 32°
2026-04-30 07:10 41.63563 -73.13565 25468 ft 463 kts 21°
2026-04-30 07:10 41.66656 -73.12368 25725 ft 463 kts
2026-04-30 07:10 41.69854 -73.12018 25986 ft 462 kts 356°
2026-04-30 07:10 41.73062 -73.12294 26254 ft 462 kts 352°
2026-04-30 07:11 41.76269 -73.12776 26533 ft 464 kts 350°
2026-04-30 07:11 41.79442 -73.13346 26745 ft 467 kts 349°
2026-04-30 07:11 41.82676 -73.13957 27006 ft 470 kts 349°
2026-04-30 07:11 41.85918 -73.14564 27310 ft 472 kts 350°
2026-04-30 07:12 41.89179 -73.15159 27603 ft 474 kts 350°
2026-04-30 07:12 41.92468 -73.15741 27897 ft 477 kts 351°
2026-04-30 07:12 41.95762 -73.16312 28192 ft 479 kts 351°
2026-04-30 07:12 41.99082 -73.16880 28497 ft 482 kts 351°
2026-04-30 07:13 42.02431 -73.17451 28693 ft 486 kts 351°
2026-04-30 07:13 42.05812 -73.18027 29006 ft 489 kts 351°
2026-04-30 07:13 42.09148 -73.18595 29341 ft 490 kts 351°
2026-04-30 07:13 42.12550 -73.19176 29641 ft 493 kts 351°
2026-04-30 07:14 42.15964 -73.19761 29941 ft 495 kts 351°
2026-04-30 07:14 42.19397 -73.20351 30196 ft 498 kts 351°
2026-04-30 07:14 42.22846 -73.20944 30427 ft 501 kts 351°
2026-04-30 07:14 42.26310 -73.21541 30671 ft 503 kts 351°
2026-04-30 07:15 42.29793 -73.22141 30936 ft 506 kts 351°
2026-04-30 07:15 42.33293 -73.22746 31198 ft 508 kts 351°
2026-04-30 07:15 42.36819 -73.23355 31437 ft 510 kts 351°
2026-04-30 07:15 42.40306 -73.23959 31661 ft 513 kts 350°
2026-04-30 07:16 42.43864 -73.24575 31810 ft 517 kts 350°
2026-04-30 07:16 42.47441 -73.25195 32056 ft 518 kts 350°
2026-04-30 07:16 42.51034 -73.25748 32304 ft 521 kts 354°
2026-04-30 07:16 42.54688 -73.25727 32523 ft 526 kts
2026-04-30 07:17 42.58269 -73.24923 32727 ft 529 kts 14°
2026-04-30 07:17 42.61755 -73.23254 32934 ft 531 kts 26°
2026-04-30 07:17 42.68098 -73.18102 33321 ft 533 kts 35°
2026-04-30 07:18 42.71178 -73.15271 33493 ft 535 kts 36°
2026-04-30 07:18 42.74247 -73.12389 33765 ft 535 kts 36°
2026-04-30 07:18 42.77311 -73.09501 34037 ft 535 kts 36°
2026-04-30 07:18 42.80344 -73.06653 34281 ft 535 kts 36°
2026-04-30 07:19 42.83435 -73.03766 34577 ft 533 kts 35°
2026-04-30 07:19 42.86498 -73.00917 34897 ft 531 kts 35°
2026-04-30 07:19 42.89554 -72.98081 35208 ft 529 kts 34°
2026-04-30 07:19 42.92558 -72.95296 35487 ft 528 kts 34°
2026-04-30 07:20 42.95604 -72.92470 35736 ft 528 kts 34°
2026-04-30 07:20 42.98647 -72.89642 35975 ft 527 kts 34°
2026-04-30 07:20 43.01682 -72.86818 36226 ft 526 kts 34°
2026-04-30 07:20 43.04710 -72.83995 36506 ft 525 kts 34°
2026-04-30 07:21 43.07726 -72.81180 36764 ft 524 kts 33°
2026-04-30 07:21 43.10697 -72.78404 37032 ft 523 kts 33°
2026-04-30 07:21 43.13704 -72.75590 37316 ft 521 kts 33°
2026-04-30 07:21 43.16687 -72.72795 37575 ft 520 kts 33°
2026-04-30 07:22 43.22664 -72.67187 38032 ft 518 kts 33°
2026-04-30 07:22 43.25634 -72.64394 38224 ft 517 kts 33°
2026-04-30 07:22 43.28606 -72.61597 38449 ft 517 kts 33°
2026-04-30 07:23 43.31540 -72.58833 38613 ft 515 kts 33°
2026-04-30 07:23 43.34498 -72.56041 38823 ft 513 kts 33°
2026-04-30 07:23 43.40414 -72.50450 38866 ft 517 kts 33°
2026-04-30 07:24 43.46316 -72.44857 38872 ft 517 kts 33°
2026-04-30 07:24 43.52243 -72.39228 38878 ft 517 kts 33°
2026-04-30 07:25 43.58146 -72.33607 38879 ft 517 kts 33°
2026-04-30 07:25 43.64068 -72.27957 38864 ft 517 kts 33°
2026-04-30 07:26 43.69986 -72.22294 38861 ft 517 kts 33°
2026-04-30 07:26 43.75898 -72.16623 38877 ft 517 kts 33°
2026-04-30 07:27 43.81774 -72.10977 38871 ft 516 kts 34°
2026-04-30 07:27 43.87674 -72.05291 38879 ft 515 kts 34°
2026-04-30 07:28 43.93576 -71.99587 38871 ft 515 kts 34°
2026-04-30 07:28 43.99431 -71.93915 38874 ft 517 kts 34°
2026-04-30 07:29 44.04360 -71.89130 38862 ft 517 kts 34°
2026-04-30 07:29 44.11226 -71.82448 38859 ft 518 kts 34°
2026-04-30 07:30 44.19123 -71.74739 38855 ft 522 kts 34°
2026-04-30 07:31 44.25086 -71.68900 38843 ft 523 kts 34°
2026-04-30 07:31 44.30994 -71.63102 38851 ft 521 kts 34°
2026-04-30 07:32 44.36928 -71.57264 38850 ft 520 kts 34°
2026-04-30 07:32 44.42846 -71.51426 38853 ft 519 kts 34°
2026-04-30 07:33 44.48713 -71.45628 38853 ft 517 kts 35°
2026-04-30 07:33 44.54585 -71.39804 38859 ft 514 kts 35°
2026-04-30 07:34 44.60430 -71.33992 38868 ft 514 kts 35°
2026-04-30 07:34 44.66269 -71.28174 38877 ft 514 kts 36°
2026-04-30 07:35 44.72067 -71.22382 38888 ft 514 kts 36°
2026-04-30 07:35 44.77898 -71.16541 38889 ft 514 kts 36°
2026-04-30 07:36 44.83647 -71.10636 38898 ft 513 kts 40°
2026-04-30 07:36 44.88880 -71.03739 38896 ft 513 kts 45°
2026-04-30 07:37 44.93959 -70.96631 38884 ft 513 kts 46°
2026-04-30 07:37 44.98970 -70.89527 38895 ft 513 kts 46°
2026-04-30 07:38 45.04012 -70.82383 38905 ft 513 kts 46°
2026-04-30 07:38 45.09065 -70.75223 38910 ft 513 kts 46°
2026-04-30 07:39 45.14077 -70.68112 38911 ft 513 kts 46°
2026-04-30 07:39 45.19121 -70.60934 38909 ft 512 kts 46°
2026-04-30 07:40 45.24128 -70.53790 38906 ft 512 kts 46°
2026-04-30 07:40 45.29159 -70.46592 38913 ft 512 kts 46°
2026-04-30 07:41 45.34144 -70.39439 38914 ft 511 kts 46°
2026-04-30 07:41 45.39154 -70.32233 38914 ft 511 kts 46°
2026-04-30 07:42 45.44167 -70.25003 38919 ft 511 kts 46°
2026-04-30 07:42 45.49164 -70.17777 38916 ft 511 kts 46°
2026-04-30 07:43 45.54128 -70.10578 38920 ft 511 kts 46°
2026-04-30 07:43 45.59112 -70.03331 38926 ft 510 kts 46°
2026-04-30 07:44 45.64067 -69.96108 38925 ft 511 kts 46°
2026-04-30 07:44 45.69043 -69.88834 38925 ft 511 kts 46°
2026-04-30 07:45 45.74019 -69.81541 38923 ft 511 kts 46°
2026-04-30 07:45 45.78951 -69.74292 38927 ft 511 kts 46°
2026-04-30 07:46 45.83928 -69.66956 38925 ft 511 kts 46°
2026-04-30 07:46 45.88850 -69.59683 38925 ft 511 kts 46°
2026-04-30 07:47 45.93808 -69.52336 38927 ft 511 kts 46°
2026-04-30 07:47 45.98750 -69.44994 38936 ft 510 kts 46°
2026-04-30 07:48 46.03672 -69.37660 38941 ft 510 kts 46°
2026-04-30 07:48 46.08608 -69.30286 38950 ft 510 kts 47°
2026-04-30 07:49 46.13508 -69.22944 38948 ft 511 kts 47°
2026-04-30 07:49 46.18442 -69.15533 38964 ft 512 kts 47°
2026-04-30 07:50 46.23376 -69.08100 38968 ft 512 kts 47°
2026-04-30 07:50 46.28274 -69.00702 38975 ft 512 kts 47°
2026-04-30 07:51 46.33208 -68.93227 38974 ft 514 kts 47°
2026-04-30 07:51 46.38147 -68.85724 38983 ft 514 kts 47°
2026-04-30 07:52 46.43054 -68.78251 39004 ft 514 kts 47°
2026-04-30 07:52 46.47989 -68.70711 39013 ft 515 kts 47°
2026-04-30 07:53 46.52924 -68.63152 39013 ft 516 kts 47°
2026-04-30 07:53 46.57859 -68.55571 39020 ft 516 kts 47°
2026-04-30 07:54 46.62794 -68.47969 39033 ft 516 kts 47°
2026-04-30 07:54 46.67701 -68.40391 39030 ft 517 kts 46°
2026-04-30 07:55 46.72629 -68.32755 39026 ft 516 kts 46°
2026-04-30 07:55 46.77549 -68.25109 39018 ft 516 kts 46°
2026-04-30 07:56 46.82439 -68.17489 38997 ft 516 kts 46°
2026-04-30 07:56 46.87325 -68.09853 38989 ft 516 kts 47°
2026-04-30 07:57 46.92233 -68.02161 38990 ft 516 kts 47°
2026-04-30 07:57 46.97137 -67.94453 38997 ft 516 kts 47°
2026-04-30 07:58 47.02004 -67.86782 39010 ft 515 kts 47°
2026-04-30 07:58 47.06890 -67.79059 39023 ft 515 kts 47°
2026-04-30 07:59 47.11738 -67.71373 39058 ft 515 kts 47°
2026-04-30 07:59 47.16609 -67.63629 39056 ft 515 kts 47°
2026-04-30 08:00 47.23901 -67.51993 39051 ft 514 kts 47°
2026-04-30 08:00 47.28710 -67.44291 39050 ft 513 kts 47°
2026-04-30 08:01 47.33525 -67.36557 39049 ft 511 kts 47°
2026-04-30 08:01 47.38548 -67.29144 39049 ft 510 kts 39°
2026-04-30 08:02 47.46791 -67.19298 39047 ft 509 kts 37°
2026-04-30 08:03 47.57894 -67.06331 39040 ft 507 kts 37°
2026-04-30 08:04 47.63390 -66.99860 39036 ft 507 kts 38°
2026-04-30 08:04 47.68908 -66.93337 39033 ft 506 kts 38°
2026-04-30 08:05 47.74419 -66.86802 39032 ft 506 kts 38°
2026-04-30 08:05 47.79893 -66.80294 39032 ft 506 kts 38°
2026-04-30 08:06 47.85398 -66.73734 39041 ft 505 kts 38°
2026-04-30 08:06 47.90884 -66.67176 39042 ft 505 kts 38°
2026-04-30 08:07 47.96328 -66.60649 39048 ft 505 kts 38°
2026-04-30 08:07 48.01807 -66.54063 39050 ft 505 kts 38°
2026-04-30 08:08 48.07281 -66.47464 39055 ft 505 kts 38°
2026-04-30 08:08 48.12753 -66.40849 39056 ft 505 kts 38°
2026-04-30 08:09 48.18217 -66.34226 39058 ft 505 kts 39°
2026-04-30 08:09 48.23675 -66.27590 39060 ft 505 kts 39°
2026-04-30 08:10 48.29097 -66.20980 39065 ft 506 kts 39°
2026-04-30 08:10 48.34576 -66.14281 39067 ft 505 kts 39°
2026-04-30 08:11 48.40035 -66.07588 39061 ft 506 kts 39°
2026-04-30 08:11 48.45467 -66.00910 39073 ft 506 kts 39°
2026-04-30 08:12 48.50925 -65.94178 39068 ft 506 kts 39°
2026-04-30 08:12 48.56339 -65.87482 39070 ft 506 kts 39°
2026-04-30 08:13 48.61787 -65.80726 39067 ft 506 kts 39°
2026-04-30 08:13 48.67239 -65.73944 39066 ft 506 kts 39°
2026-04-30 08:14 48.72636 -65.67212 39058 ft 506 kts 39°
2026-04-30 08:14 48.78089 -65.60390 39061 ft 506 kts 40°
2026-04-30 08:15 48.82606 -65.54724 39059 ft 507 kts 40°
2026-04-30 08:15 48.88042 -65.47887 39050 ft 507 kts 40°
2026-04-30 08:16 48.93437 -65.41081 39048 ft 507 kts 40°
2026-04-30 08:16 48.98861 -65.34219 39046 ft 507 kts 40°
2026-04-30 08:17 49.04300 -65.27318 39046 ft 507 kts 40°
2026-04-30 08:17 49.09698 -65.20450 39047 ft 507 kts 40°
2026-04-30 08:18 49.15127 -65.13521 39045 ft 508 kts 40°
2026-04-30 08:18 49.20565 -65.06561 39042 ft 508 kts 40°
2026-04-30 08:19 49.25961 -64.99633 39044 ft 508 kts 40°
2026-04-30 08:19 49.31401 -64.92628 39048 ft 509 kts 40°
2026-04-30 08:20 49.36787 -64.85672 39039 ft 509 kts 40°
2026-04-30 08:20 49.42215 -64.78641 39047 ft 509 kts 40°
2026-04-30 08:21 49.47604 -64.71639 39056 ft 509 kts 40°
2026-04-30 08:21 49.53035 -64.64563 39064 ft 510 kts 40°
2026-04-30 08:22 49.58429 -64.57512 39069 ft 511 kts 40°
2026-04-30 08:22 49.63850 -64.50405 39074 ft 511 kts 40°
2026-04-30 08:23 49.69268 -64.43281 39086 ft 511 kts 40°
2026-04-30 08:23 49.74652 -64.36179 39086 ft 511 kts 40°
2026-04-30 08:24 49.80075 -64.29006 39094 ft 511 kts 40°
2026-04-30 08:24 49.85486 -64.21827 39101 ft 511 kts 41°
2026-04-30 08:25 49.90854 -64.14682 39101 ft 512 kts 41°
2026-04-30 08:25 49.96258 -64.07465 39110 ft 512 kts 41°
2026-04-30 08:26 50.01621 -64.00282 39118 ft 512 kts 41°
2026-04-30 08:26 50.07035 -63.93009 39129 ft 513 kts 41°
2026-04-30 08:27 50.12429 -63.85741 39129 ft 513 kts 41°
2026-04-30 08:27 50.17733 -63.78572 39135 ft 513 kts 41°
2026-04-30 08:28 50.22651 -63.71904 39130 ft 513 kts 41°
2026-04-30 08:28 50.27756 -63.64964 39127 ft 514 kts 41°
2026-04-30 08:29 50.33117 -63.57652 39129 ft 514 kts 41°
2026-04-30 08:29 50.38506 -63.50280 39132 ft 514 kts 41°
2026-04-30 08:30 50.43894 -63.42886 39138 ft 514 kts 41°
2026-04-30 08:30 50.49287 -63.35462 39149 ft 514 kts 41°
2026-04-30 08:31 50.54631 -63.28083 39155 ft 514 kts 41°
2026-04-30 08:31 50.60008 -63.20633 39161 ft 514 kts 41°
2026-04-30 08:32 50.65388 -63.13157 39162 ft 515 kts 42°
2026-04-30 08:32 50.70740 -63.05695 39168 ft 515 kts 42°
2026-04-30 08:33 50.76103 -62.98194 39173 ft 515 kts 42°
2026-04-30 08:33 50.81439 -62.90708 39174 ft 515 kts 42°
2026-04-30 08:34 50.86817 -62.83139 39173 ft 516 kts 42°
2026-04-30 08:34 50.92184 -62.75559 39173 ft 516 kts 42°
2026-04-30 08:35 50.97515 -62.68008 39174 ft 516 kts 42°
2026-04-30 08:35 51.02871 -62.60396 39173 ft 517 kts 42°
2026-04-30 08:36 51.08233 -62.52750 39172 ft 517 kts 42°
2026-04-30 08:36 51.13563 -62.45127 39174 ft 518 kts 42°
2026-04-30 08:37 51.18919 -62.37441 39173 ft 518 kts 42°
2026-04-30 08:37 51.24282 -62.29718 39174 ft 519 kts 42°
2026-04-30 08:38 51.29644 -62.21973 39167 ft 519 kts 42°
2026-04-30 08:38 51.34966 -62.14261 39177 ft 520 kts 42°
2026-04-30 08:39 51.40324 -62.06470 39178 ft 520 kts 43°
2026-04-30 08:39 51.45689 -61.98643 39172 ft 520 kts 43°
2026-04-30 08:40 51.51045 -61.90803 39170 ft 520 kts 43°
2026-04-30 08:40 51.56369 -61.82985 39175 ft 520 kts 43°
2026-04-30 08:41 51.61713 -61.75111 39167 ft 521 kts 43°
2026-04-30 08:41 51.67056 -61.67213 39166 ft 521 kts 43°
2026-04-30 08:42 51.72370 -61.59329 39166 ft 521 kts 43°
2026-04-30 08:42 51.77704 -61.51390 39156 ft 521 kts 43°
2026-04-30 08:43 51.83043 -61.43418 39158 ft 521 kts 43°
2026-04-30 08:43 51.88343 -61.35477 39165 ft 521 kts 43°
2026-04-30 08:44 51.93664 -61.27476 39158 ft 521 kts 43°
2026-04-30 08:44 51.98994 -61.19436 39159 ft 521 kts 43°
2026-04-30 08:45 52.04267 -61.11454 39159 ft 522 kts 43°
2026-04-30 08:45 52.09577 -61.03388 39156 ft 521 kts 44°
2026-04-30 08:46 52.14882 -60.95303 39161 ft 522 kts 44°
2026-04-30 08:46 52.20170 -60.87216 39159 ft 523 kts 44°
2026-04-30 08:47 52.25479 -60.79069 39155 ft 523 kts 44°
2026-04-30 08:47 52.30751 -60.70951 39155 ft 523 kts 44°
2026-04-30 08:48 52.36054 -60.62757 39157 ft 523 kts 44°
2026-04-30 08:48 52.41346 -60.54551 39155 ft 523 kts 44°
2026-04-30 08:49 52.46634 -60.46324 39167 ft 523 kts 44°
2026-04-30 08:49 52.51883 -60.38128 39170 ft 523 kts 44°
2026-04-30 08:50 52.57176 -60.29835 39167 ft 525 kts 44°
2026-04-30 08:50 52.62460 -60.21527 39163 ft 525 kts 44°
2026-04-30 08:51 52.67709 -60.13245 39163 ft 525 kts 44°
2026-04-30 08:51 52.72979 -60.04900 39162 ft 525 kts 44°
2026-04-30 08:52 52.78261 -59.96506 39161 ft 527 kts 44°
2026-04-30 08:52 52.83517 -59.88126 39159 ft 527 kts 44°
2026-04-30 08:53 52.88801 -59.79670 39157 ft 527 kts 44°
2026-04-30 08:53 52.94053 -59.71235 39152 ft 528 kts 45°
2026-04-30 08:54 52.99334 -59.62723 39150 ft 529 kts 45°
2026-04-30 08:54 53.04613 -59.54184 39160 ft 529 kts 45°
2026-04-30 08:55 53.09886 -59.45623 39154 ft 529 kts 45°
2026-04-30 08:55 53.15118 -59.37099 39148 ft 529 kts 45°
2026-04-30 08:56 53.20368 -59.28513 39151 ft 529 kts 45°
2026-04-30 08:56 53.25636 -59.19867 39146 ft 529 kts 45°
2026-04-30 08:57 53.30858 -59.11266 39145 ft 529 kts 45°
2026-04-30 08:57 53.36103 -59.02596 39145 ft 530 kts 45°
2026-04-30 08:58 53.41344 -58.93898 39139 ft 530 kts 45°
2026-04-30 08:58 53.46584 -58.85173 39125 ft 530 kts 45°
2026-04-30 08:59 53.51786 -58.76477 39126 ft 531 kts 45°
2026-04-30 08:59 53.57028 -58.67683 39114 ft 531 kts 45°
2026-04-30 09:00 53.61384 -58.60351 39100 ft 531 kts 45°
2026-04-30 09:00 53.67458 -58.50089 39103 ft 532 kts 45°
2026-04-30 09:01 53.71836 -58.42664 39095 ft 531 kts 45°
2026-04-30 09:01 53.77019 -58.33843 39082 ft 531 kts 45°
2026-04-30 09:02 53.84812 -58.20519 39075 ft 530 kts 46°
2026-04-30 09:02 53.89967 -58.11663 39076 ft 531 kts 46°
2026-04-30 09:03 53.95162 -58.02707 39072 ft 531 kts 46°
2026-04-30 09:03 54.00358 -57.93716 39064 ft 531 kts 46°
2026-04-30 09:04 54.05501 -57.84782 39062 ft 531 kts 46°
2026-04-30 09:04 54.10682 -57.75747 39061 ft 531 kts 46°
2026-04-30 09:05 54.15750 -57.66876 39056 ft 531 kts 46°
2026-04-30 09:05 54.20972 -57.57700 39056 ft 531 kts 46°
2026-04-30 09:06 54.26127 -57.48608 39064 ft 532 kts 46°
2026-04-30 09:06 54.31282 -57.39480 39074 ft 532 kts 46°
2026-04-30 09:07 54.36386 -57.30408 39069 ft 532 kts 46°
2026-04-30 09:07 54.41520 -57.21250 39069 ft 532 kts 46°
2026-04-30 09:08 54.46645 -57.12070 39070 ft 532 kts 46°
2026-04-30 09:08 54.51704 -57.02886 39069 ft 531 kts 50°
2026-04-30 09:09 54.55830 -56.92371 39071 ft 529 kts 61°
2026-04-30 09:09 54.59465 -56.81319 39288 ft 529 kts 63°
2026-04-30 09:10 54.61239 -56.75758 39449 ft 528 kts 63°
2026-04-30 09:10 54.63008 -56.70190 39614 ft 527 kts 63°
2026-04-30 09:10 54.66537 -56.59088 39787 ft 528 kts 63°
2026-04-30 09:11 54.68288 -56.53583 39938 ft 528 kts 63°
2026-04-30 09:11 54.70058 -56.48019 40034 ft 528 kts 63°
2026-04-30 09:11 54.73604 -56.36845 40068 ft 529 kts 63°
2026-04-30 09:12 54.77136 -56.25666 40077 ft 529 kts 63°
2026-04-30 09:12 54.80654 -56.14475 40079 ft 529 kts 63°
2026-04-30 09:13 54.84146 -56.03314 40064 ft 529 kts 63°
2026-04-30 09:13 54.87655 -55.92044 40068 ft 530 kts 63°
2026-04-30 09:14 54.91134 -55.80822 40080 ft 530 kts 63°
2026-04-30 09:14 54.94619 -55.69526 40085 ft 530 kts 63°
2026-04-30 09:15 54.98104 -55.58175 40075 ft 530 kts 63°
2026-04-30 09:15 55.01574 -55.46819 40076 ft 530 kts 63°
2026-04-30 09:16 55.05009 -55.35522 40070 ft 530 kts 63°
2026-04-30 09:16 55.08455 -55.24136 40081 ft 530 kts 63°
2026-04-30 09:17 55.11898 -55.12706 40077 ft 530 kts 63°
2026-04-30 09:17 55.15321 -55.01287 40075 ft 530 kts 63°
2026-04-30 09:18 55.18717 -54.89902 40075 ft 530 kts 64°
2026-04-30 09:18 55.22123 -54.78430 40071 ft 529 kts 64°
2026-04-30 09:19 55.25506 -54.66978 40082 ft 528 kts 64°
2026-04-30 09:19 55.28870 -54.55534 40075 ft 528 kts 64°
2026-04-30 09:20 55.32236 -54.44026 40079 ft 528 kts 64°
2026-04-30 09:20 55.35560 -54.32610 40076 ft 528 kts 64°
2026-04-30 09:21 55.38900 -54.21080 40079 ft 528 kts 64°
2026-04-30 09:21 55.42231 -54.09526 40073 ft 529 kts 64°
2026-04-30 09:22 55.45526 -53.98039 40070 ft 529 kts 64°
2026-04-30 09:22 55.48837 -53.86439 40078 ft 529 kts 64°
2026-04-30 09:23 55.52136 -53.74822 40073 ft 529 kts 64°
2026-04-30 09:23 55.55407 -53.63246 40073 ft 529 kts 64°
2026-04-30 09:24 55.58686 -53.51585 40070 ft 529 kts 64°
2026-04-30 09:24 55.61934 -53.39973 40066 ft 529 kts 65°
2026-04-30 09:25 55.65189 -53.28280 40075 ft 529 kts 65°
2026-04-30 09:25 55.68437 -53.16550 40080 ft 529 kts 65°
2026-04-30 09:26 55.71661 -53.04850 40070 ft 529 kts 65°
2026-04-30 09:26 55.74892 -52.93062 40067 ft 530 kts 65°
2026-04-30 09:27 55.78109 -52.81266 40081 ft 529 kts 65°
2026-04-30 09:27 55.81291 -52.69539 40074 ft 529 kts 65°
2026-04-30 09:28 55.84475 -52.57742 40080 ft 529 kts 65°
2026-04-30 09:28 55.87658 -52.45886 40056 ft 530 kts 65°
2026-04-30 09:29 55.90812 -52.34077 40069 ft 529 kts 65°
2026-04-30 09:29 55.93959 -52.22235 40077 ft 526 kts 65°
2026-04-30 09:30 55.97063 -52.10492 40080 ft 525 kts 65°
2026-04-30 09:30 56.00177 -51.98647 40079 ft 526 kts 65°
2026-04-30 09:31 56.03262 -51.86855 40077 ft 526 kts 65°
2026-04-30 09:31 56.06350 -51.74985 40087 ft 525 kts 66°
2026-04-30 09:32 56.09430 -51.63089 40077 ft 526 kts 66°
2026-04-30 09:32 56.12477 -51.51251 40079 ft 526 kts 66°
2026-04-30 09:33 56.15536 -51.39306 40075 ft 526 kts 66°
2026-04-30 09:33 56.18568 -51.27404 40079 ft 526 kts 66°
2026-04-30 09:34 56.21599 -51.15439 40080 ft 527 kts 66°
2026-04-30 09:34 56.24627 -51.03426 40073 ft 526 kts 66°
2026-04-30 09:35 56.27634 -50.91429 40078 ft 525 kts 66°
2026-04-30 09:35 56.30611 -50.79484 40083 ft 524 kts 66°
2026-04-30 09:36 56.33588 -50.67477 40083 ft 524 kts 66°
2026-04-30 09:36 56.36553 -50.55449 40082 ft 524 kts 66°
2026-04-30 09:37 56.39486 -50.43490 40086 ft 525 kts 66°
2026-04-30 09:37 56.42440 -50.31377 40078 ft 526 kts 67°
2026-04-30 09:38 56.45365 -50.19320 40088 ft 526 kts 67°
2026-04-30 09:38 56.48290 -50.07189 40087 ft 526 kts 67°
2026-04-30 09:39 56.50741 -49.94717 40091 ft 524 kts 75°
2026-04-30 09:39 56.52634 -49.81944 40086 ft 525 kts 77°
2026-04-30 09:40 56.54423 -49.69157 40083 ft 526 kts 77°
2026-04-30 09:40 56.56207 -49.56282 40087 ft 526 kts 77°
2026-04-30 09:41 56.57982 -49.43458 40083 ft 526 kts 77°
2026-04-30 09:41 56.59759 -49.30564 40099 ft 526 kts 77°
2026-04-30 09:42 56.61525 -49.17644 40091 ft 527 kts 77°
2026-04-30 09:42 56.63280 -49.04692 40088 ft 527 kts 78°
2026-04-30 09:43 56.65013 -48.91789 40100 ft 527 kts 78°
2026-04-30 09:43 56.66746 -48.78774 40094 ft 527 kts 78°
2026-04-30 09:44 56.68448 -48.65883 40097 ft 528 kts 78°
2026-04-30 09:44 56.70152 -48.52851 40102 ft 529 kts 78°
2026-04-30 09:45 56.71845 -48.39799 40102 ft 529 kts 78°
2026-04-30 09:45 56.73510 -48.26840 40097 ft 529 kts 78°
2026-04-30 09:46 56.75176 -48.13764 40110 ft 529 kts 79°
2026-04-30 09:46 56.76829 -48.00661 40105 ft 529 kts 79°
2026-04-30 09:47 56.78468 -47.87553 40107 ft 530 kts 79°
2026-04-30 09:47 56.80084 -47.74503 40080 ft 531 kts 79°
2026-04-30 09:48 56.81430 -47.63549 40106 ft 531 kts 79°
2026-04-30 09:48 56.83031 -47.50404 40105 ft 530 kts 79°
2026-04-30 09:49 56.84622 -47.37207 40105 ft 530 kts 79°
2026-04-30 09:49 56.86187 -47.24112 40115 ft 531 kts 79°
2026-04-30 09:50 56.87753 -47.10869 40115 ft 532 kts 79°
2026-04-30 09:50 56.89307 -46.97607 40110 ft 533 kts 80°
2026-04-30 09:51 56.90838 -46.84410 40123 ft 533 kts 80°
2026-04-30 09:51 56.92366 -46.71100 40112 ft 533 kts 80°
2026-04-30 09:52 56.93877 -46.57811 40116 ft 532 kts 80°
2026-04-30 09:52 56.95362 -46.44615 40119 ft 531 kts 80°
2026-04-30 09:53 56.96846 -46.31296 40118 ft 531 kts 80°
2026-04-30 09:53 56.98301 -46.18095 40118 ft 531 kts 81°
2026-04-30 09:54 56.99751 -46.04803 40129 ft 531 kts 81°
2026-04-30 09:54 57.01177 -45.91599 40129 ft 531 kts 81°
2026-04-30 09:55 57.02605 -45.78225 40125 ft 532 kts 81°
2026-04-30 09:55 57.04018 -45.64862 40117 ft 532 kts 81°
2026-04-30 09:56 57.05409 -45.51553 40129 ft 532 kts 81°
2026-04-30 09:56 57.06790 -45.38197 40127 ft 531 kts 81°
2026-04-30 09:57 57.08158 -45.24823 40137 ft 531 kts 81°
2026-04-30 09:57 57.09505 -45.11491 40132 ft 532 kts 81°
2026-04-30 09:58 57.10848 -44.98067 40135 ft 533 kts 81°
2026-04-30 09:58 57.12175 -44.84642 40126 ft 533 kts 82°
2026-04-30 09:59 57.14780 -44.57816 40144 ft 533 kts 82°
2026-04-30 10:00 57.16692 -44.37723 40138 ft 533 kts 82°
2026-04-30 10:01 57.18580 -44.17526 40138 ft 533 kts 82°
2026-04-30 10:02 57.20430 -43.97365 40132 ft 532 kts 82°
2026-04-30 10:02 57.21648 -43.83876 40149 ft 533 kts 82°
2026-04-30 10:03 57.22856 -43.70328 40140 ft 534 kts 82°
2026-04-30 10:03 57.24037 -43.56920 40140 ft 534 kts 82°
2026-04-30 10:04 57.25216 -43.43363 40133 ft 533 kts 82°
2026-04-30 10:04 57.26385 -43.29754 40147 ft 532 kts 82°
2026-04-30 10:05 57.27530 -43.16225 40150 ft 532 kts 82°
2026-04-30 10:05 57.28654 -43.02764 40143 ft 533 kts 82°
2026-04-30 10:06 57.29772 -42.89210 40135 ft 533 kts 82°
2026-04-30 10:06 57.30871 -42.75701 40135 ft 533 kts 83°
2026-04-30 10:07 57.31963 -42.62080 40143 ft 533 kts 83°
2026-04-30 10:07 57.33031 -42.48572 40149 ft 533 kts 83°
2026-04-30 10:08 57.34093 -42.34941 40140 ft 534 kts 83°
2026-04-30 10:08 57.35135 -42.21381 40140 ft 534 kts 83°
2026-04-30 10:09 57.36165 -42.07789 40146 ft 534 kts 83°
2026-04-30 10:09 57.37182 -41.94152 40146 ft 534 kts 83°
2026-04-30 10:10 57.38184 -41.80506 40148 ft 534 kts 83°
2026-04-30 10:10 57.39174 -41.66825 40151 ft 534 kts 83°
2026-04-30 10:11 57.40144 -41.53212 40148 ft 535 kts 83°
2026-04-30 10:11 57.41104 -41.39518 40146 ft 535 kts 83°
2026-04-30 10:12 57.42049 -41.25811 40146 ft 534 kts 83°
2026-04-30 10:12 57.42974 -41.12185 40154 ft 531 kts 83°
2026-04-30 10:13 57.43877 -40.98647 40156 ft 532 kts 83°
2026-04-30 10:13 57.44775 -40.84968 40156 ft 533 kts 83°
2026-04-30 10:14 57.45658 -40.71287 40156 ft 533 kts 84°
2026-04-30 10:14 57.46949 -40.50858 40152 ft 533 kts 84°
2026-04-30 10:15 57.47795 -40.37150 40172 ft 533 kts 84°
2026-04-30 10:15 57.48622 -40.23513 40157 ft 534 kts 84°
2026-04-30 10:16 57.49438 -40.09812 40158 ft 532 kts 84°
2026-04-30 10:17 57.50540 -39.89362 40168 ft 530 kts 86°
2026-04-30 10:17 57.51246 -39.68797 40159 ft 530 kts 87°
2026-04-30 10:18 57.51714 -39.55100 40173 ft 530 kts 86°
2026-04-30 10:19 57.52430 -39.34609 40170 ft 530 kts 87°
2026-04-30 10:19 57.52897 -39.20889 40170 ft 530 kts 87°
2026-04-30 10:20 57.53346 -39.07251 40180 ft 529 kts 87°
2026-04-30 10:20 57.53990 -38.86730 40180 ft 529 kts 86°
2026-04-30 10:21 57.54402 -38.73026 40186 ft 530 kts 86°
2026-04-30 10:21 57.54797 -38.59412 40186 ft 530 kts 87°
2026-04-30 10:22 57.55180 -38.45673 40186 ft 530 kts 87°
2026-04-30 10:22 57.55548 -38.31960 40194 ft 530 kts 87°
2026-04-30 10:23 57.55899 -38.18316 40202 ft 530 kts 87°
2026-04-30 10:23 57.56237 -38.04595 40182 ft 528 kts 87°
2026-04-30 10:24 57.56558 -37.90959 40200 ft 526 kts 87°
2026-04-30 10:24 57.56864 -37.77330 40195 ft 525 kts 87°
2026-04-30 10:25 57.57153 -37.63790 40194 ft 525 kts 88°
2026-04-30 10:25 57.57430 -37.50176 40195 ft 525 kts 88°
2026-04-30 10:26 57.57692 -37.36561 40203 ft 525 kts 88°
2026-04-30 10:26 57.57937 -37.23039 40203 ft 524 kts 88°
2026-04-30 10:27 57.58170 -37.09420 40197 ft 524 kts 88°
2026-04-30 10:27 57.58388 -36.95817 40209 ft 522 kts 88°
2026-04-30 10:28 57.58588 -36.82389 40207 ft 521 kts 88°
2026-04-30 10:28 57.58775 -36.68900 40206 ft 521 kts 88°
2026-04-30 10:29 57.58948 -36.55410 40211 ft 520 kts 88°
2026-04-30 10:29 57.59107 -36.41903 40211 ft 520 kts 88°
2026-04-30 10:30 57.59251 -36.28418 40208 ft 520 kts 88°
2026-04-30 10:30 57.59381 -36.14901 40220 ft 520 kts 89°
2026-04-30 10:31 57.59496 -36.01401 40214 ft 520 kts 88°
2026-04-30 10:31 57.59596 -35.87985 40214 ft 519 kts 88°
2026-04-30 10:32 57.59681 -35.74604 40225 ft 519 kts 89°
2026-04-30 10:32 57.59754 -35.61141 40220 ft 519 kts 89°
2026-04-30 10:33 57.59812 -35.47670 40222 ft 519 kts 89°
2026-04-30 10:33 57.59855 -35.34275 40227 ft 519 kts 89°
2026-04-30 10:34 57.59884 -35.20806 40229 ft 519 kts 89°
2026-04-30 10:34 57.59899 -35.07320 40221 ft 520 kts 89°
2026-04-30 10:35 57.59900 -34.96088 40223 ft 521 kts 89°
2026-04-30 10:35 57.59888 -34.82576 40227 ft 520 kts 89°
2026-04-30 10:36 57.59857 -34.66912 40228 ft 520 kts 89°
2026-04-30 10:36 57.59823 -34.55598 40259 ft 520 kts 89°
2026-04-30 10:37 57.59768 -34.42160 40232 ft 522 kts 89°
2026-04-30 10:37 57.59687 -34.26386 40239 ft 523 kts 89°
2026-04-30 10:38 57.59616 -34.15023 40235 ft 523 kts 89°
2026-04-30 10:38 57.59518 -34.01526 40237 ft 523 kts 89°
2026-04-30 10:39 57.59404 -33.87947 40235 ft 523 kts 89°
2026-04-30 10:39 57.59277 -33.74458 40243 ft 523 kts 89°
2026-04-30 10:40 57.59136 -33.60855 40246 ft 524 kts 89°
2026-04-30 10:40 57.58979 -33.47242 40242 ft 525 kts 89°
2026-04-30 10:41 57.58807 -33.33638 40241 ft 524 kts 90°
2026-04-30 10:41 57.58622 -33.20100 40251 ft 525 kts 90°
2026-04-30 10:42 57.58421 -33.06507 40261 ft 525 kts 90°
2026-04-30 10:42 57.58206 -32.92877 40246 ft 525 kts 90°
2026-04-30 10:43 57.57976 -32.79335 40244 ft 524 kts 90°
2026-04-30 10:43 57.57732 -32.65768 40252 ft 522 kts 90°
2026-04-30 10:44 57.57476 -32.52301 40255 ft 522 kts 90°
2026-04-30 10:44 57.57203 -32.38743 40247 ft 522 kts 90°
2026-04-30 10:45 57.56917 -32.25210 40248 ft 522 kts 90°
2026-04-30 10:45 57.56617 -32.11750 40248 ft 522 kts 90°
2026-04-30 10:46 57.56301 -31.98189 40259 ft 522 kts 90°
2026-04-30 10:46 57.55971 -31.84664 40256 ft 522 kts 91°
2026-04-30 10:47 57.55628 -31.71203 40257 ft 522 kts 91°
2026-04-30 10:47 57.55269 -31.57677 40253 ft 522 kts 91°
2026-04-30 10:48 57.54895 -31.44133 40260 ft 523 kts 91°
2026-04-30 10:48 57.54506 -31.30589 40256 ft 523 kts 91°
2026-04-30 10:49 57.54105 -31.17137 40261 ft 523 kts 91°
2026-04-30 10:49 57.53688 -31.03598 40265 ft 523 kts 91°
2026-04-30 10:50 57.53255 -30.90044 40265 ft 523 kts 92°
2026-04-30 10:50 57.52811 -30.76585 40261 ft 523 kts 91°
2026-04-30 10:51 57.52349 -30.63050 40274 ft 521 kts 91°
2026-04-30 10:51 57.51879 -30.49667 40273 ft 521 kts 92°
2026-04-30 10:52 57.51391 -30.36207 40280 ft 521 kts 92°
2026-04-30 10:52 57.50890 -30.22764 40274 ft 520 kts 92°
2026-04-30 10:53 57.50379 -30.09431 40279 ft 521 kts 92°
2026-04-30 10:53 57.49840 -29.95958 40271 ft 522 kts 93°
2026-04-30 10:54 57.49072 -29.82496 40275 ft 523 kts 95°
2026-04-30 10:54 57.48203 -29.69065 40272 ft 522 kts 95°
2026-04-30 10:55 57.47354 -29.55740 40280 ft 520 kts 95°
2026-04-30 10:55 57.46514 -29.42370 40278 ft 520 kts 95°
2026-04-30 10:56 57.45673 -29.29067 40283 ft 520 kts 95°
2026-04-30 10:56 57.44817 -29.15750 40288 ft 521 kts 95°
2026-04-30 10:57 57.43940 -29.02374 40289 ft 521 kts 95°
2026-04-30 10:57 57.43053 -28.89078 40288 ft 521 kts 95°
2026-04-30 10:58 57.42149 -28.75730 40283 ft 520 kts 95°
2026-04-30 10:58 57.41237 -28.62495 40295 ft 518 kts 95°
2026-04-30 10:59 57.40308 -28.49210 40289 ft 518 kts 95°
2026-04-30 10:59 57.39371 -28.36012 40289 ft 518 kts 95°
2026-04-30 11:00 57.38415 -28.22744 40292 ft 518 kts 95°
2026-04-30 11:00 57.37446 -28.09506 40294 ft 518 kts 96°
2026-04-30 11:01 57.36461 -27.96245 40299 ft 518 kts 96°
2026-04-30 11:01 57.35470 -27.83093 40310 ft 519 kts 96°
2026-04-30 11:02 57.34460 -27.69895 40290 ft 516 kts 96°
2026-04-30 11:02 57.33437 -27.56710 40303 ft 515 kts 96°
2026-04-30 11:03 57.32406 -27.43588 40291 ft 515 kts 96°
2026-04-30 11:04 57.30835 -27.23936 40296 ft 515 kts 96°
2026-04-30 11:04 57.29773 -27.10873 40300 ft 515 kts 96°
2026-04-30 11:05 57.28692 -26.97767 40302 ft 514 kts 97°
2026-04-30 11:05 57.27603 -26.84731 40293 ft 514 kts 97°
2026-04-30 11:06 57.26499 -26.71679 40298 ft 513 kts 97°
2026-04-30 11:06 57.25391 -26.58747 40297 ft 512 kts 97°
2026-04-30 11:07 57.24264 -26.45752 40313 ft 512 kts 97°
2026-04-30 11:07 57.23122 -26.32745 40301 ft 511 kts 98°
2026-04-30 11:08 57.21974 -26.19836 40302 ft 511 kts 98°
2026-04-30 11:08 57.20809 -26.06895 40303 ft 511 kts 98°
2026-04-30 11:09 57.19634 -25.94002 40299 ft 511 kts 98°
2026-04-30 11:09 57.18441 -25.81054 40296 ft 511 kts 98°
2026-04-30 11:10 57.17236 -25.68135 40306 ft 510 kts 99°
2026-04-30 11:10 57.16025 -25.55293 40299 ft 512 kts 99°
2026-04-30 11:11 57.14787 -25.42326 40299 ft 512 kts 99°
2026-04-30 11:11 57.13547 -25.29482 40303 ft 512 kts 99°
2026-04-30 11:12 57.12286 -25.16568 40300 ft 512 kts 99°
2026-04-30 11:12 57.11009 -25.03635 40298 ft 512 kts 99°
2026-04-30 11:13 57.09730 -24.90823 40293 ft 512 kts 99°
2026-04-30 11:13 57.08430 -24.77932 40297 ft 512 kts 99°
2026-04-30 11:14 57.07115 -24.65041 40295 ft 512 kts 100°
2026-04-30 11:14 57.05797 -24.52266 40302 ft 512 kts 100°
2026-04-30 11:15 57.04457 -24.39397 40300 ft 512 kts 100°
2026-04-30 11:15 57.03112 -24.26625 40301 ft 512 kts 100°
2026-04-30 11:16 57.01743 -24.13755 40300 ft 512 kts 101°
2026-04-30 11:16 57.00362 -24.00906 40299 ft 512 kts 101°
2026-04-30 11:17 56.98977 -23.88154 40295 ft 511 kts 101°
2026-04-30 11:17 56.97573 -23.75353 40300 ft 511 kts 101°
2026-04-30 11:18 56.96156 -23.62566 40296 ft 511 kts 101°
2026-04-30 11:18 56.94017 -23.43495 40296 ft 510 kts 101°
2026-04-30 11:19 56.92571 -23.30762 40297 ft 509 kts 102°
2026-04-30 11:19 56.91125 -23.18156 40298 ft 509 kts 102°
2026-04-30 11:20 56.89655 -23.05459 40291 ft 509 kts 102°
2026-04-30 11:20 56.88173 -22.92772 40293 ft 509 kts 102°
2026-04-30 11:21 56.86687 -22.80171 40297 ft 508 kts 102°
2026-04-30 11:21 56.85181 -22.67520 40288 ft 510 kts 103°
2026-04-30 11:22 56.83659 -22.54858 40289 ft 510 kts 103°
2026-04-30 11:22 56.82131 -22.42263 40289 ft 510 kts 103°
2026-04-30 11:23 56.80581 -22.29598 40287 ft 510 kts 103°
2026-04-30 11:24 56.78496 -22.12742 40289 ft 510 kts 103°
2026-04-30 11:24 56.76916 -22.00102 40285 ft 511 kts 103°
2026-04-30 11:25 56.74525 -21.81183 40283 ft 512 kts 103°
2026-04-30 11:26 56.71286 -21.55944 40280 ft 512 kts 104°
2026-04-30 11:26 56.69656 -21.43410 40285 ft 512 kts 104°
2026-04-30 11:27 56.68003 -21.30802 40280 ft 512 kts 104°
2026-04-30 11:27 56.66334 -21.18184 40267 ft 512 kts 104°
2026-04-30 11:28 56.63823 -20.99400 40278 ft 510 kts 104°
2026-04-30 11:29 56.62132 -20.86883 40277 ft 510 kts 104°
2026-04-30 11:29 56.59581 -20.68188 40272 ft 510 kts 104°
2026-04-30 11:30 56.56991 -20.49444 40267 ft 510 kts 105°
2026-04-30 11:31 56.55256 -20.37019 40268 ft 510 kts 105°
2026-04-30 11:31 56.53504 -20.24563 40251 ft 509 kts 105°
2026-04-30 11:32 56.51739 -20.12120 40260 ft 509 kts 105°
2026-04-30 11:32 56.49973 -19.99769 40253 ft 508 kts 105°
2026-04-30 11:33 56.46875 -19.81475 40259 ft 506 kts 110°
2026-04-30 11:33 56.44650 -19.69444 40245 ft 506 kts 110°
2026-04-30 11:34 56.42447 -19.57334 40246 ft 506 kts 109°
2026-04-30 11:34 56.40266 -19.45227 40240 ft 506 kts 109°
2026-04-30 11:35 56.38095 -19.33209 40241 ft 506 kts 109°
2026-04-30 11:35 56.35899 -19.21131 40240 ft 506 kts 110°
2026-04-30 11:36 56.33685 -19.09050 40227 ft 506 kts 110°
2026-04-30 11:36 56.31458 -18.96982 40226 ft 506 kts 110°
2026-04-30 11:37 56.29238 -18.85025 40228 ft 507 kts 110°
2026-04-30 11:37 56.26989 -18.72990 40222 ft 506 kts 110°
2026-04-30 11:38 56.24731 -18.60982 40206 ft 506 kts 110°
2026-04-30 11:38 56.22482 -18.49090 40216 ft 503 kts 110°
2026-04-30 11:39 56.20217 -18.37197 40214 ft 502 kts 110°
2026-04-30 11:39 56.17947 -18.25351 40211 ft 501 kts 111°
2026-04-30 11:40 56.15666 -18.13518 40211 ft 502 kts 111°
2026-04-30 11:40 56.13388 -18.01776 40206 ft 502 kts 111°
2026-04-30 11:41 56.11077 -17.89935 40205 ft 501 kts 111°
2026-04-30 11:41 56.08774 -17.78199 40194 ft 501 kts 111°
2026-04-30 11:42 56.06838 -17.68397 40200 ft 500 kts 111°
2026-04-30 11:42 56.04126 -17.54741 40200 ft 499 kts 111°
2026-04-30 11:43 56.01784 -17.43024 40200 ft 499 kts 111°
2026-04-30 11:43 55.99446 -17.31395 40200 ft 499 kts 111°
2026-04-30 11:44 55.97096 -17.19773 40191 ft 499 kts 112°
2026-04-30 11:44 55.94732 -17.08149 40192 ft 497 kts 112°
2026-04-30 11:45 55.92359 -16.96557 40190 ft 496 kts 112°
2026-04-30 11:45 55.89996 -16.85078 40196 ft 494 kts 112°
2026-04-30 11:46 55.87617 -16.73588 40193 ft 494 kts 112°
2026-04-30 11:46 55.85232 -16.62135 40191 ft 494 kts 112°
2026-04-30 11:47 55.82829 -16.50659 40191 ft 493 kts 112°
2026-04-30 11:47 55.80438 -16.39303 40192 ft 490 kts 112°
2026-04-30 11:48 55.78038 -16.27967 40192 ft 489 kts 112°
2026-04-30 11:48 55.75627 -16.16648 40190 ft 489 kts 112°
2026-04-30 11:49 55.73223 -16.05420 40192 ft 487 kts 112°
2026-04-30 11:49 55.70807 -15.94196 40192 ft 487 kts 112°
2026-04-30 11:50 55.68389 -15.83021 40182 ft 487 kts 113°
2026-04-30 11:50 55.65946 -15.71798 40184 ft 487 kts 113°
2026-04-30 11:51 55.63510 -15.60667 40184 ft 487 kts 113°
2026-04-30 11:51 55.61046 -15.49467 40184 ft 487 kts 113°
2026-04-30 11:52 55.58570 -15.38272 40182 ft 486 kts 113°
2026-04-30 11:52 55.56115 -15.27234 40181 ft 485 kts 113°
2026-04-30 11:53 55.53637 -15.16146 40180 ft 485 kts 113°
2026-04-30 11:53 55.51207 -15.05007 40177 ft 486 kts 109°
2026-04-30 11:54 55.50064 -14.93297 40182 ft 491 kts 94°
2026-04-30 11:54 55.49971 -14.81225 40170 ft 492 kts 91°
2026-04-30 11:55 55.50044 -14.69124 40170 ft 492 kts 91°
2026-04-30 11:55 55.50100 -14.57114 40164 ft 492 kts 92°
2026-04-30 11:56 55.50113 -14.45005 40167 ft 493 kts 92°
2026-04-30 11:56 55.50102 -14.32992 40165 ft 493 kts 92°
2026-04-30 11:57 55.50077 -14.20880 40167 ft 493 kts 92°
2026-04-30 11:57 55.50042 -14.08777 40165 ft 492 kts 92°
2026-04-30 11:58 55.49985 -14.02744 40293 ft 490 kts 96°
2026-04-30 11:58 55.49600 -13.96887 40642 ft 482 kts 101°
2026-04-30 11:58 55.49053 -13.91072 40934 ft 479 kts 102°
2026-04-30 11:58 55.48457 -13.85292 41038 ft 479 kts 103°
2026-04-30 11:59 55.47185 -13.73705 41156 ft 483 kts 103°
2026-04-30 11:59 55.45884 -13.62084 41155 ft 486 kts 103°
2026-04-30 12:00 55.44577 -13.50386 41160 ft 486 kts 103°
2026-04-30 12:00 55.43273 -13.38749 41162 ft 485 kts 103°
2026-04-30 12:01 55.41955 -13.27090 41153 ft 485 kts 104°
2026-04-30 12:01 55.40634 -13.15513 41156 ft 485 kts 104°
2026-04-30 12:02 55.39294 -13.03882 41153 ft 485 kts 104°
2026-04-30 12:02 55.37942 -12.92247 41152 ft 485 kts 104°
2026-04-30 12:03 55.35901 -12.74873 41146 ft 485 kts 104°
2026-04-30 12:04 55.34516 -12.63214 41152 ft 485 kts 104°
2026-04-30 12:04 55.33132 -12.51659 41153 ft 486 kts 104°
2026-04-30 12:05 55.31728 -12.40036 41142 ft 486 kts 104°
2026-04-30 12:05 55.30314 -12.28432 41145 ft 485 kts 104°
2026-04-30 12:06 55.28899 -12.16913 41155 ft 486 kts 105°
2026-04-30 12:06 55.27460 -12.05311 41159 ft 486 kts 105°
2026-04-30 12:07 55.26008 -11.93691 41154 ft 487 kts 105°
2026-04-30 12:07 55.24548 -11.82100 41160 ft 486 kts 105°
2026-04-30 12:08 55.23084 -11.70579 41160 ft 486 kts 105°
2026-04-30 12:08 55.21606 -11.59034 41160 ft 486 kts 105°
2026-04-30 12:09 55.20115 -11.47489 41166 ft 485 kts 105°
2026-04-30 12:09 55.18617 -11.35984 41166 ft 485 kts 105°
2026-04-30 12:10 55.17115 -11.24537 41164 ft 485 kts 105°
2026-04-30 12:10 55.15592 -11.13013 41162 ft 485 kts 105°
2026-04-30 12:11 55.14069 -11.01591 41146 ft 484 kts 106°
2026-04-30 12:11 55.12530 -10.90129 41153 ft 483 kts 106°
2026-04-30 12:12 55.11245 -10.80631 41158 ft 483 kts 106°
2026-04-30 12:12 55.09434 -10.67348 41159 ft 483 kts 106°
2026-04-30 12:13 55.08128 -10.57839 41157 ft 483 kts 106°
2026-04-30 12:13 55.06550 -10.46431 41166 ft 482 kts 106°
2026-04-30 12:14 55.04968 -10.35068 41165 ft 481 kts 107°
2026-04-30 12:14 55.03383 -10.23780 41167 ft 481 kts 107°
2026-04-30 12:15 55.01788 -10.12501 41160 ft 481 kts 107°
2026-04-30 12:15 55.00254 -10.01129 41163 ft 483 kts 102°
2026-04-30 12:16 54.99571 -9.89446 41165 ft 485 kts 97°
2026-04-30 12:16 54.99109 -9.77700 41162 ft 485 kts 96°
2026-04-30 12:17 54.98444 -9.60153 41157 ft 485 kts 97°
2026-04-30 12:17 54.97969 -9.48467 41157 ft 485 kts 97°
2026-04-30 12:18 54.97474 -9.36736 41159 ft 485 kts 97°
2026-04-30 12:18 54.96966 -9.25006 41152 ft 485 kts 97°
2026-04-30 12:19 54.96449 -9.13306 41159 ft 486 kts 97°
2026-04-30 12:19 54.95921 -9.01611 41159 ft 486 kts 97°
2026-04-30 12:20 54.95380 -8.89863 41157 ft 486 kts 97°
2026-04-30 12:20 54.94827 -8.78120 41158 ft 486 kts 97°
2026-04-30 12:21 54.94268 -8.66472 41150 ft 484 kts 98°
2026-04-30 12:21 54.93696 -8.54797 41152 ft 483 kts 98°
2026-04-30 12:22 54.93113 -8.43146 41156 ft 483 kts 98°
2026-04-30 12:22 54.92523 -8.31589 41156 ft 483 kts 98°
2026-04-30 12:23 54.91917 -8.19921 41155 ft 483 kts 98°
2026-04-30 12:23 54.91304 -8.08336 41157 ft 483 kts 98°
2026-04-30 12:24 54.90677 -7.96682 41160 ft 483 kts 98°
2026-04-30 12:24 54.90040 -7.85067 41158 ft 483 kts 98°
2026-04-30 12:25 54.89392 -7.73456 41163 ft 483 kts 98°
2026-04-30 12:25 54.88736 -7.61896 41154 ft 483 kts 98°
2026-04-30 12:26 54.88064 -7.50280 41164 ft 483 kts 99°
2026-04-30 12:26 54.87381 -7.38639 41176 ft 483 kts 99°
2026-04-30 12:27 54.86691 -7.27086 41162 ft 483 kts 99°
2026-04-30 12:27 54.85986 -7.15461 41166 ft 483 kts 99°
2026-04-30 12:28 54.85271 -7.03868 41157 ft 483 kts 99°
2026-04-30 12:28 54.84551 -6.92349 41174 ft 481 kts 99°
2026-04-30 12:29 54.83816 -6.80787 41190 ft 481 kts 99°
2026-04-30 12:29 54.83074 -6.69310 41196 ft 481 kts 99°
2026-04-30 12:30 54.82315 -6.57744 41198 ft 481 kts 99°
2026-04-30 12:30 54.81548 -6.46211 41195 ft 481 kts 99°
2026-04-30 12:31 54.80775 -6.34739 41191 ft 481 kts 99°
2026-04-30 12:31 54.79987 -6.23223 41188 ft 481 kts 100°
2026-04-30 12:32 54.79185 -6.11688 41192 ft 481 kts 100°
2026-04-30 12:32 54.78372 -6.00141 41196 ft 481 kts 100°
2026-04-30 12:33 54.77556 -5.88702 41215 ft 481 kts 100°
2026-04-30 12:33 54.76724 -5.77195 41215 ft 481 kts 100°
2026-04-30 12:34 54.75880 -5.65692 41217 ft 481 kts 100°
2026-04-30 12:34 54.75027 -5.54206 41225 ft 481 kts 100°
2026-04-30 12:35 54.74167 -5.42776 41226 ft 481 kts 100°
2026-04-30 12:35 54.73290 -5.31288 41222 ft 480 kts 100°
2026-04-30 12:36 54.72407 -5.19855 41222 ft 479 kts 100°
2026-04-30 12:36 54.71518 -5.08485 41219 ft 479 kts 101°
2026-04-30 12:37 54.70613 -4.97046 41219 ft 479 kts 101°
2026-04-30 12:37 54.69695 -4.85602 41211 ft 479 kts 101°
2026-04-30 12:38 54.68778 -4.74290 41233 ft 476 kts 101°
2026-04-30 12:38 54.67848 -4.62962 41233 ft 475 kts 101°
2026-04-30 12:39 54.66913 -4.51707 41235 ft 475 kts 101°
2026-04-30 12:39 54.65967 -4.40456 41233 ft 475 kts 101°
2026-04-30 12:40 54.65007 -4.29156 41218 ft 475 kts 101°
2026-04-30 12:40 54.64032 -4.17826 41233 ft 477 kts 101°
2026-04-30 12:41 54.63051 -4.06538 41231 ft 478 kts 101°
2026-04-30 12:41 54.62051 -3.95162 41232 ft 478 kts 101°
2026-04-30 12:42 54.61048 -3.83869 41236 ft 478 kts 101°
2026-04-30 12:42 54.60027 -3.72507 41228 ft 478 kts 101°
2026-04-30 12:43 54.59000 -3.61207 41233 ft 480 kts 101°
2026-04-30 12:43 54.57951 -3.49789 41232 ft 481 kts 101°
2026-04-30 12:44 54.56899 -3.38453 41236 ft 481 kts 101°
2026-04-30 12:44 54.55831 -3.27062 41236 ft 481 kts 101°
2026-04-30 12:45 54.54752 -3.15676 41239 ft 481 kts 102°
2026-04-30 12:45 54.53662 -3.04314 41248 ft 480 kts 102°
2026-04-30 12:46 54.52570 -2.93030 41240 ft 480 kts 102°
2026-04-30 12:46 54.51463 -2.81693 41245 ft 480 kts 102°
2026-04-30 12:47 54.50351 -2.70421 41249 ft 480 kts 102°
2026-04-30 12:47 54.49221 -2.59090 41249 ft 480 kts 102°
2026-04-30 12:48 54.48085 -2.47795 41255 ft 481 kts 103°
2026-04-30 12:48 54.46931 -2.36452 41256 ft 481 kts 102°
2026-04-30 12:49 54.45765 -2.25119 41266 ft 480 kts 102°
2026-04-30 12:49 54.44599 -2.13877 41265 ft 480 kts 102°
2026-04-30 12:50 54.43417 -2.02588 41295 ft 477 kts 103°
2026-04-30 12:50 54.42235 -1.91397 41285 ft 475 kts 103°
2026-04-30 12:51 54.41053 -1.80311 41286 ft 475 kts 103°
2026-04-30 12:51 54.39852 -1.69156 41289 ft 475 kts 103°
2026-04-30 12:52 54.38640 -1.58003 41294 ft 475 kts 103°
2026-04-30 12:52 54.37418 -1.46834 41293 ft 476 kts 103°
2026-04-30 12:53 54.36184 -1.35660 41294 ft 476 kts 103°
2026-04-30 12:53 54.34941 -1.24548 41286 ft 477 kts 103°
2026-04-30 12:54 54.33685 -1.13392 41297 ft 476 kts 103°
2026-04-30 12:54 54.32419 -1.02242 41301 ft 476 kts 103°
2026-04-30 12:55 54.31143 -0.91092 41318 ft 476 kts 104°
2026-04-30 12:55 54.29866 -0.80044 41322 ft 476 kts 104°
2026-04-30 12:56 54.28571 -0.68926 41321 ft 476 kts 104°
2026-04-30 12:56 54.27272 -0.57876 41338 ft 476 kts 104°
2026-04-30 12:57 54.25952 -0.46743 41339 ft 476 kts 104°
2026-04-30 12:57 54.24626 -0.35649 41344 ft 475 kts 104°
2026-04-30 12:58 54.23303 -0.24667 41342 ft 475 kts 104°
2026-04-30 12:58 54.21955 -0.13579 41344 ft 475 kts 104°
2026-04-30 12:59 54.20606 -0.02542 41344 ft 474 kts 104°
2026-04-30 12:59 54.19474 0.06628 41346 ft 475 kts 104°
2026-04-30 13:00 54.17875 0.19468 41350 ft 475 kts 104°
2026-04-30 13:00 54.16492 0.30497 41351 ft 475 kts 104°
2026-04-30 13:01 54.15108 0.41446 41346 ft 474 kts 104°
2026-04-30 13:01 54.13938 0.50629 41350 ft 475 kts 104°
2026-04-30 13:02 54.12014 0.61353 41348 ft 471 kts 112°
2026-04-30 13:02 54.09678 0.71803 41358 ft 471 kts 113°
2026-04-30 13:03 54.07283 0.82169 41357 ft 470 kts 113°
2026-04-30 13:03 54.04893 0.92483 41363 ft 471 kts 113°
2026-04-30 13:04 54.02489 1.02865 41358 ft 470 kts 113°
2026-04-30 13:04 54.00095 1.13173 41362 ft 469 kts 113°
2026-04-30 13:05 53.97695 1.23465 41364 ft 468 kts 113°
2026-04-30 13:06 53.94079 1.38876 41371 ft 467 kts 113°
2026-04-30 13:06 53.91660 1.49113 41371 ft 468 kts 114°
2026-04-30 13:07 53.89239 1.59315 41366 ft 467 kts 113°
2026-04-30 13:07 53.86805 1.69529 41371 ft 467 kts 113°
2026-04-30 13:08 53.84368 1.79700 41372 ft 467 kts 113°
2026-04-30 13:08 53.81913 1.89907 41372 ft 467 kts 114°
2026-04-30 13:09 53.79452 2.00086 41373 ft 467 kts 114°
2026-04-30 13:09 53.76991 2.10215 41372 ft 466 kts 113°
2026-04-30 13:10 53.74518 2.20349 41379 ft 466 kts 113°
2026-04-30 13:10 53.72051 2.30413 41369 ft 465 kts 113°
2026-04-30 13:11 53.69560 2.40526 41368 ft 466 kts 113°
2026-04-30 13:11 53.67061 2.50626 41369 ft 465 kts 114°
2026-04-30 13:12 53.64565 2.60665 41362 ft 466 kts 113°
2026-04-30 13:12 53.62053 2.70724 41374 ft 465 kts 114°
2026-04-30 13:13 53.58283 2.85742 41364 ft 464 kts 113°
2026-04-30 13:14 53.54482 3.00780 41366 ft 466 kts 114°
2026-04-30 13:14 53.50671 3.15749 41387 ft 466 kts 113°
2026-04-30 13:15 53.46823 3.30765 41402 ft 465 kts 114°
2026-04-30 13:16 53.44250 3.40751 41399 ft 466 kts 114°
2026-04-30 13:16 53.41676 3.50639 41403 ft 466 kts 115°
2026-04-30 13:17 53.38164 3.59764 41400 ft 466 kts 130°
2026-04-30 13:17 53.36014 3.63844 41401 ft 466 kts 131°
2026-04-30 13:18 53.29329 3.75635 41390 ft 467 kts 133°
2026-04-30 13:18 53.22579 3.87408 41388 ft 469 kts 133°
2026-04-30 13:19 53.18076 3.95296 41376 ft 468 kts 132°
2026-04-30 13:19 53.13605 4.03116 41374 ft 465 kts 133°
2026-04-30 13:20 53.09127 4.10923 41383 ft 467 kts 132°
2026-04-30 13:20 53.04617 4.18761 41373 ft 470 kts 133°
2026-04-30 13:21 53.00096 4.26588 41375 ft 470 kts 133°
2026-04-30 13:22 52.93311 4.38287 41367 ft 468 kts 133°
2026-04-30 13:22 52.86521 4.49944 41368 ft 469 kts 133°
2026-04-30 13:23 52.79703 4.61590 41369 ft 470 kts 133°
2026-04-30 13:24 52.70617 4.77019 41368 ft 468 kts 133°
2026-04-30 13:25 52.61487 4.92434 41364 ft 471 kts 133°
2026-04-30 13:26 52.50040 5.11610 41369 ft 470 kts 133°
2026-04-30 13:28 52.38561 5.30697 41372 ft 472 kts 134°
2026-04-30 13:28 52.31615 5.42170 41371 ft 471 kts 133°
2026-04-30 13:29 52.22373 5.57356 41365 ft 473 kts 133°
2026-04-30 13:31 52.10737 5.76336 41375 ft 474 kts 134°
2026-04-30 13:32 51.99079 5.95207 41362 ft 475 kts 134°
2026-04-30 13:33 51.89701 6.10280 41358 ft 476 kts 133°
2026-04-30 13:34 51.82621 6.21596 41352 ft 475 kts 134°
2026-04-30 13:35 51.73214 6.36554 41354 ft 476 kts 133°
2026-04-30 13:36 51.63755 6.51503 41357 ft 477 kts 133°
2026-04-30 13:36 51.56630 6.62701 41363 ft 477 kts 133°
2026-04-30 13:37 51.49476 6.73894 41368 ft 478 kts 134°
2026-04-30 13:38 51.42334 6.85013 41349 ft 479 kts 133°
2026-04-30 13:39 51.32752 6.99854 41364 ft 479 kts 134°
2026-04-30 13:40 51.25574 7.10912 41366 ft 479 kts 134°
2026-04-30 13:40 51.20765 7.18292 41355 ft 480 kts 134°
2026-04-30 13:41 51.15927 7.25694 41354 ft 482 kts 134°
2026-04-30 13:41 51.11070 7.33102 41353 ft 482 kts 134°
2026-04-30 13:42 51.06242 7.40443 41354 ft 482 kts 134°
2026-04-30 13:42 50.98960 7.51474 41359 ft 482 kts 134°
2026-04-30 13:43 50.94128 7.58765 41370 ft 482 kts 134°
2026-04-30 13:43 50.89230 7.66136 41360 ft 484 kts 134°
2026-04-30 13:44 50.84367 7.73432 41366 ft 484 kts 134°
2026-04-30 13:44 50.79459 7.80772 41371 ft 484 kts 134°
2026-04-30 13:45 50.72128 7.91691 41371 ft 484 kts 134°
2026-04-30 13:46 50.67202 7.99002 41379 ft 485 kts 134°
2026-04-30 13:46 50.62306 8.06246 41367 ft 487 kts 134°
2026-04-30 13:47 50.56879 8.12725 41367 ft 490 kts 144°
2026-04-30 13:47 50.51129 8.18585 41366 ft 491 kts 145°
2026-04-30 13:48 50.46336 8.23345 41364 ft 491 kts 145°
2026-04-30 13:48 50.40555 8.29086 41364 ft 491 kts 145°
2026-04-30 13:49 50.34808 8.34809 41381 ft 491 kts 145°
2026-04-30 13:49 50.29183 8.40870 41368 ft 489 kts 136°
2026-04-30 13:50 50.24380 8.48350 41368 ft 486 kts 130°
2026-04-30 13:50 50.17539 8.59985 41371 ft 486 kts 129°
2026-04-30 13:51 50.12987 8.67724 41373 ft 486 kts 130°
2026-04-30 13:51 50.08382 8.75478 41372 ft 486 kts 130°
2026-04-30 13:52 50.03740 8.83162 41369 ft 487 kts 133°
2026-04-30 13:52 49.98723 8.90287 41363 ft 489 kts 136°
2026-04-30 13:53 49.93615 8.97204 41360 ft 489 kts 136°
2026-04-30 13:53 49.88525 9.04227 41349 ft 488 kts 135°
2026-04-30 13:54 49.83512 9.11238 41355 ft 489 kts 135°
2026-04-30 13:54 49.78450 9.18330 41343 ft 491 kts 135°
2026-04-30 13:55 49.73367 9.25429 41346 ft 491 kts 135°
2026-04-30 13:55 49.68310 9.32462 41341 ft 491 kts 135°
2026-04-30 13:56 49.63218 9.39532 41346 ft 491 kts 134°
2026-04-30 13:56 49.58578 9.47127 41359 ft 488 kts 128°
2026-04-30 13:57 49.54073 9.54999 41343 ft 490 kts 128°
2026-04-30 13:57 49.49579 9.62909 41348 ft 490 kts 128°
2026-04-30 13:58 49.42827 9.74712 41344 ft 490 kts 128°
2026-04-30 13:59 49.38300 9.82575 41346 ft 490 kts 128°
2026-04-30 13:59 49.33791 9.90384 41349 ft 492 kts 128°
2026-04-30 14:00 49.29225 9.98237 41343 ft 493 kts 128°
2026-04-30 14:00 49.22363 10.09999 40980 ft 492 kts 128°
2026-04-30 14:01 49.20077 10.13908 40350 ft 492 kts 128°
2026-04-30 14:01 49.17838 10.17737 39964 ft 486 kts 128°
2026-04-30 14:01 49.15588 10.21579 39452 ft 482 kts 127°
2026-04-30 14:01 49.13352 10.25389 38835 ft 482 kts 127°
2026-04-30 14:02 49.11074 10.29163 38133 ft 482 kts 128°
2026-04-30 14:02 49.08791 10.32831 37439 ft 480 kts 128°
2026-04-30 14:02 49.06477 10.36500 36754 ft 479 kts 129°
2026-04-30 14:02 49.04161 10.40168 36069 ft 477 kts 129°
2026-04-30 14:03 49.01861 10.43817 35417 ft 476 kts 128°
2026-04-30 14:03 48.99579 10.47451 34856 ft 472 kts 128°
2026-04-30 14:03 48.97342 10.51016 34360 ft 467 kts 128°
2026-04-30 14:03 48.95104 10.54572 33787 ft 463 kts 128°
2026-04-30 14:04 48.92889 10.58099 33251 ft 458 kts 128°
2026-04-30 14:04 48.90697 10.61580 32720 ft 453 kts 128°
2026-04-30 14:04 48.88528 10.65018 32176 ft 449 kts 128°
2026-04-30 14:04 48.86368 10.68440 31655 ft 444 kts 127°
2026-04-30 14:05 48.84242 10.71804 31124 ft 440 kts 127°
2026-04-30 14:05 48.82154 10.75105 30631 ft 436 kts 127°
2026-04-30 14:05 48.80061 10.78414 30064 ft 432 kts 127°
2026-04-30 14:05 48.77986 10.81688 29462 ft 429 kts 128°
2026-04-30 14:06 48.75920 10.84933 28848 ft 426 kts 128°
2026-04-30 14:06 48.71815 10.91353 27701 ft 420 kts 128°
2026-04-30 14:07 48.67774 10.97666 26602 ft 413 kts 128°
2026-04-30 14:07 48.65823 11.00704 25667 ft 405 kts 128°
2026-04-30 14:07 48.63858 11.03756 24594 ft 404 kts 128°
2026-04-30 14:08 48.59978 11.09775 22393 ft 395 kts 129°
2026-04-30 14:08 48.57986 11.12631 21299 ft 394 kts 135°
2026-04-30 14:08 48.53969 11.17962 19252 ft 376 kts 123°
2026-04-30 14:09 48.52644 11.21286 18175 ft 366 kts 110°
2026-04-30 14:09 48.51911 11.24894 17087 ft 355 kts 96°
2026-04-30 14:09 48.52098 11.32064 15105 ft 336 kts 76°
2026-04-30 14:10 48.52537 11.35531 14085 ft 333 kts 79°
2026-04-30 14:10 48.52858 11.38913 13091 ft 327 kts 81°
2026-04-30 14:10 48.53117 11.42292 12046 ft 322 kts 85°
2026-04-30 14:10 48.52821 11.45607 11162 ft 319 kts 107°
2026-04-30 14:11 48.51673 11.48413 10622 ft 310 kts 130°
2026-04-30 14:11 48.49936 11.50144 10397 ft 292 kts 156°
2026-04-30 14:11 48.47998 11.50533 10351 ft 274 kts 181°
2026-04-30 14:11 48.46232 11.49585 10352 ft 273 kts 210°
2026-04-30 14:12 48.44933 11.47551 10352 ft 274 kts 238°
2026-04-30 14:12 48.44303 11.44812 10348 ft 275 kts 260°
2026-04-30 14:12 48.44033 11.41996 10340 ft 274 kts 264°
2026-04-30 14:12 48.43885 11.40110 10320 ft 273 kts 264°
2026-04-30 14:13 48.43596 11.36303 9586 ft 275 kts 264°
2026-04-30 14:13 48.43389 11.33458 9038 ft 270 kts 264°
2026-04-30 14:13 48.43192 11.30640 8411 ft 272 kts 264°
2026-04-30 14:13 48.43006 11.27830 7807 ft 273 kts 264°
2026-04-30 14:14 48.42817 11.25036 7404 ft 264 kts 261°
2026-04-30 14:14 48.42223 11.22460 6770 ft 261 kts 234°
2026-04-30 14:14 48.40927 11.20661 6229 ft 248 kts 202°
2026-04-30 14:14 48.39317 11.20053 6009 ft 237 kts 179°
2026-04-30 14:15 48.37676 11.19993 5972 ft 239 kts 174°
2026-04-30 14:15 48.36017 11.20036 5966 ft 236 kts 169°
2026-04-30 14:15 48.34533 11.20855 5974 ft 225 kts 139°
2026-04-30 14:15 48.33599 11.22635 5995 ft 215 kts 112°
2026-04-30 14:16 48.33105 11.24767 5998 ft 218 kts 105°
2026-04-30 14:16 48.32783 11.27018 5971 ft 219 kts 96°
2026-04-30 14:16 48.32713 11.29254 5979 ft 217 kts 89°
2026-04-30 14:16 48.32809 11.31505 5978 ft 215 kts 85°
2026-04-30 14:17 48.32966 11.33744 5976 ft 215 kts 84°
2026-04-30 14:17 48.33140 11.35988 5996 ft 216 kts 84°
2026-04-30 14:17 48.33318 11.38247 5975 ft 216 kts 84°
2026-04-30 14:17 48.33490 11.40452 5984 ft 214 kts 84°
2026-04-30 14:18 48.33659 11.42687 5978 ft 217 kts 84°
2026-04-30 14:18 48.33825 11.44921 5796 ft 210 kts 84°
2026-04-30 14:18 48.34143 11.49022 5276 ft 184 kts 84°
2026-04-30 14:19 48.34413 11.52603 4774 ft 163 kts 84°
2026-04-30 14:19 48.34543 11.54252 4537 ft 156 kts 83°
2026-04-30 14:19 48.34668 11.55873 4316 ft 155 kts 83°
2026-04-30 14:20 48.34791 11.57491 4084 ft 157 kts 83°
2026-04-30 14:20 48.34916 11.59129 3880 ft 157 kts 83°
2026-04-30 14:20 48.35165 11.62344 3465 ft 153 kts 83°
2026-04-30 14:21 48.35292 11.63941 3236 ft 152 kts 83°
2026-04-30 14:21 48.35408 11.65513 3058 ft 151 kts 84°
2026-04-30 14:21 48.35622 11.68278 2674 ft 148 kts 82°
2026-04-30 14:22 48.35730 11.69677 2473 ft 136 kts 83°
2026-04-30 14:22 48.35931 11.72280 2108 ft 116 kts 83°
2026-04-30 14:22 48.36023 11.73485 1971 ft 117 kts 85°
2026-04-30 14:23 48.36221 11.75968 1618 ft 120 kts 83°
2026-04-30 14:23 48.36395 11.78232 1461 ft 69 kts 83°
2026-04-30 14:24 48.36414 11.78644 1464 ft 25 kts 91°
2026-04-30 14:24 48.36353 11.78934 1465 ft 29 kts 114°
2026-04-30 14:25 48.36173 11.79306 1464 ft 12 kts 169°
2026-04-30 14:25 48.35966 11.79338 1464 ft 18 kts 169°
2026-04-30 14:26 48.35708 11.79414 1465 ft 20 kts 174°
2026-04-30 14:26 48.35560 11.79441 1465 ft 23 kts 174°
2026-04-30 14:26 48.35344 11.79449 1461 ft 3 kts 234°
2026-04-30 14:27 48.35345 11.79436 1461 ft 0 kts 277°
2026-04-30 14:27 48.35352 11.79376 1468 ft 7 kts 271°
2026-04-30 14:27 48.35350 11.79338 1467 ft 0 kts 264°